Time,TemperatureF,DewpointF,PressureIn,WindDirection,WindDirectionDegrees,WindSpeedMPH,WindSpeedGustMPH,Humidity,HourlyPrecipIn,Conditions,Clouds,dailyrainin,SoftwareType,DateUTC
2013-06-09 00:01:00,57.1,54.5,29.94,North,355,0.0,0.0,91,0.00,,,0.00,WeatherCatV1.15B25,2013-06-09 04:01:00,
2013-06-09 00:04:00,57.2,54.6,29.94,North,355,0.0,0.0,91,0.00,,,0.00,WeatherCatV1.15B25,2013-06-09 04:04:00,
2013-06-09 00:06:00,57.1,54.5,29.94,North,355,0.0,0.0,91,0.00,,,0.00,WeatherCatV1.15B25,2013-06-09 04:06:00,
2013-06-09 00:07:00,57.1,54.5,29.94,North,355,0.0,0.0,91,0.00,,,0.00,WeatherCatV1.15B25,2013-06-09 04:07:00,
2013-06-09 00:08:00,57.1,54.5,29.94,North,355,0.0,0.0,91,0.00,,,0.00,WeatherCatV1.15B25,2013-06-09 04:08:00,
2013-06-09 00:13:00,57.0,54.4,29.94,North,355,0.0,0.0,91,0.00,,,0.00,WeatherCatV1.15B25,2013-06-09 04:13:00,
2013-06-09 00:18:00,56.9,54.3,29.94,North,355,0.0,0.0,91,0.00,,,0.00,WeatherCatV1.15B25,2013-06-09 04:18:00,
2013-06-09 00:23:00,56.8,54.2,29.94,North,355,1.0,1.0,91,0.00,,,0.00,WeatherCatV1.15B25,2013-06-09 04:23:00,
2013-06-09 00:28:00,56.7,54.1,29.95,North,355,0.0,0.0,91,0.00,,,0.00,WeatherCatV1.15B25,2013-06-09 04:28:00,
2013-06-09 00:33:00,56.6,54.0,29.95,North,355,0.0,0.0,91,0.00,,,0.00,WeatherCatV1.15B25,2013-06-09 04:33:00,
2013-06-09 00:38:00,56.6,54.0,29.95,North,355,0.0,0.0,91,0.00,,,0.00,WeatherCatV1.15B25,2013-06-09 04:38:00,
2013-06-09 00:43:00,56.5,53.9,29.96,North,355,0.0,0.0,91,0.00,,,0.00,WeatherCatV1.15B25,2013-06-09 04:43:00,
2013-06-09 00:48:00,56.4,53.8,29.96,North,355,0.0,0.0,91,0.00,,,0.00,WeatherCatV1.15B25,2013-06-09 04:48:00,
2013-06-09 00:53:00,56.3,53.7,29.96,North,355,1.0,2.0,91,0.00,,,0.00,WeatherCatV1.15B25,2013-06-09 04:53:00,
2013-06-09 00:58:00,56.3,53.7,29.96,North,355,0.0,0.0,91,0.00,,,0.00,WeatherCatV1.15B25,2013-06-09 04:58:00,
2013-06-09 01:03:00,56.2,53.9,29.95,North,355,0.0,0.0,92,0.00,,,0.00,WeatherCatV1.15B25,2013-06-09 05:03:00,
2013-06-09 01:08:00,56.2,53.6,29.95,North,355,0.0,0.0,91,0.00,,,0.00,WeatherCatV1.15B25,2013-06-09 05:08:00,
2013-06-09 01:13:00,56.2,53.6,29.96,North,355,0.0,0.0,91,0.00,,,0.00,WeatherCatV1.15B25,2013-06-09 05:13:00,
2013-06-09 01:18:00,56.0,53.4,29.95,North,355,0.0,0.0,91,0.00,,,0.00,WeatherCatV1.15B25,2013-06-09 05:18:00,
2013-06-09 01:23:00,55.9,53.3,29.95,North,355,0.0,0.0,91,0.00,,,0.00,WeatherCatV1.15B25,2013-06-09 05:23:00,
2013-06-09 01:28:00,55.8,53.2,29.95,North,355,0.0,0.0,91,0.00,,,0.00,WeatherCatV1.15B25,2013-06-09 05:28:00,
2013-06-09 01:33:00,55.7,53.1,29.95,North,355,0.0,0.0,91,0.00,,,0.00,WeatherCatV1.15B25,2013-06-09 05:33:00,
2013-06-09 01:38:00,55.7,53.1,29.95,North,355,0.0,0.0,91,0.00,,,0.00,WeatherCatV1.15B25,2013-06-09 05:38:00,
2013-06-09 01:43:00,55.6,53.0,29.96,North,355,0.0,0.0,91,0.00,,,0.00,WeatherCatV1.15B25,2013-06-09 05:43:00,
2013-06-09 01:48:00,55.5,52.9,29.96,North,355,0.0,0.0,91,0.00,,,0.00,WeatherCatV1.15B25,2013-06-09 05:48:00,
2013-06-09 01:53:00,55.3,53.0,29.95,North,355,0.0,0.0,92,0.00,,,0.00,WeatherCatV1.15B25,2013-06-09 05:53:00,
2013-06-09 01:58:00,55.0,52.4,29.95,North,355,0.0,0.0,91,0.00,,,0.00,WeatherCatV1.15B25,2013-06-09 05:58:00,
2013-06-09 02:03:00,54.8,52.5,29.96,North,355,0.0,0.0,92,0.00,,,0.00,WeatherCatV1.15B25,2013-06-09 06:03:00,
2013-06-09 02:08:00,54.6,52.3,29.95,North,355,0.0,1.0,92,0.00,,,0.00,WeatherCatV1.15B25,2013-06-09 06:08:00,
2013-06-09 02:13:00,54.6,52.3,29.96,North,355,0.0,1.0,92,0.00,,,0.00,WeatherCatV1.15B25,2013-06-09 06:13:00,
2013-06-09 02:18:00,54.5,52.2,29.96,North,355,0.0,0.0,92,0.00,,,0.00,WeatherCatV1.15B25,2013-06-09 06:18:00,
2013-06-09 02:23:00,54.6,52.6,29.96,North,355,0.0,0.0,93,0.00,,,0.00,WeatherCatV1.15B25,2013-06-09 06:23:00,
2013-06-09 02:28:00,54.6,52.6,29.97,North,355,0.0,0.0,93,0.00,,,0.00,WeatherCatV1.15B25,2013-06-09 06:28:00,
2013-06-09 02:33:00,54.4,52.4,29.97,North,355,0.0,0.0,93,0.00,,,0.00,WeatherCatV1.15B25,2013-06-09 06:33:00,
2013-06-09 02:38:00,54.3,52.0,29.96,North,355,0.0,0.0,92,0.00,,,0.00,WeatherCatV1.15B25,2013-06-09 06:38:00,
2013-06-09 02:43:00,54.2,52.2,29.96,North,355,0.0,0.0,93,0.00,,,0.00,WeatherCatV1.15B25,2013-06-09 06:43:00,
2013-06-09 02:48:00,54.1,52.1,29.97,North,355,0.0,0.0,93,0.00,,,0.00,WeatherCatV1.15B25,2013-06-09 06:48:00,
2013-06-09 02:53:00,53.9,51.9,29.97,North,355,0.0,0.0,93,0.00,,,0.00,WeatherCatV1.15B25,2013-06-09 06:53:00,
2013-06-09 02:58:00,54.0,52.0,29.97,North,355,0.0,0.0,93,0.00,,,0.00,WeatherCatV1.15B25,2013-06-09 06:58:00,
2013-06-09 03:03:00,54.1,52.1,29.98,North,355,0.0,0.0,93,0.00,,,0.00,WeatherCatV1.15B25,2013-06-09 07:03:00,
2013-06-09 03:08:00,54.2,52.2,29.98,North,355,0.0,0.0,93,0.00,,,0.00,WeatherCatV1.15B25,2013-06-09 07:08:00,
2013-06-09 03:13:00,54.1,52.1,29.97,North,355,0.0,0.0,93,0.00,,,0.00,WeatherCatV1.15B25,2013-06-09 07:13:00,
2013-06-09 03:18:00,53.9,51.9,29.98,North,355,0.0,0.0,93,0.00,,,0.00,WeatherCatV1.15B25,2013-06-09 07:18:00,
2013-06-09 03:23:00,53.7,51.7,29.98,North,355,0.0,0.0,93,0.00,,,0.00,WeatherCatV1.15B25,2013-06-09 07:23:00,
2013-06-09 03:28:00,53.8,51.8,29.98,North,355,0.0,0.0,93,0.00,,,0.00,WeatherCatV1.15B25,2013-06-09 07:28:00,
2013-06-09 03:33:00,53.8,51.8,29.98,North,355,0.0,0.0,93,0.00,,,0.00,WeatherCatV1.15B25,2013-06-09 07:33:00,
2013-06-09 03:38:00,53.9,51.9,29.98,North,355,0.0,0.0,93,0.00,,,0.00,WeatherCatV1.15B25,2013-06-09 07:38:00,
2013-06-09 03:43:00,53.9,51.9,29.97,North,355,1.0,1.0,93,0.00,,,0.00,WeatherCatV1.15B25,2013-06-09 07:43:00,
2013-06-09 03:48:00,53.9,51.9,29.97,North,350,0.0,0.0,93,0.00,,,0.00,WeatherCatV1.15B25,2013-06-09 07:48:00,
2013-06-09 03:53:00,53.9,51.9,29.97,North,350,0.0,0.0,93,0.00,,,0.00,WeatherCatV1.15B25,2013-06-09 07:53:00,
2013-06-09 03:58:00,54.0,52.0,29.98,North,350,0.0,0.0,93,0.00,,,0.00,WeatherCatV1.15B25,2013-06-09 07:58:00,
2013-06-09 04:03:00,54.1,52.1,29.97,North,350,0.0,0.0,93,0.00,,,0.00,WeatherCatV1.15B25,2013-06-09 08:03:00,
2013-06-09 04:08:00,54.0,52.0,29.97,North,350,0.0,0.0,93,0.00,,,0.00,WeatherCatV1.15B25,2013-06-09 08:08:00,
2013-06-09 04:13:00,54.0,52.0,29.97,North,350,0.0,0.0,93,0.00,,,0.00,WeatherCatV1.15B25,2013-06-09 08:13:00,
2013-06-09 04:18:00,53.8,51.8,29.97,North,350,0.0,0.0,93,0.00,,,0.00,WeatherCatV1.15B25,2013-06-09 08:18:00,
2013-06-09 04:23:00,53.7,51.7,29.96,North,350,0.0,0.0,93,0.00,,,0.00,WeatherCatV1.15B25,2013-06-09 08:23:00,
2013-06-09 04:28:00,53.7,51.7,29.97,North,350,0.0,1.0,93,0.00,,,0.00,WeatherCatV1.15B25,2013-06-09 08:28:00,
2013-06-09 04:33:00,53.5,51.5,29.97,North,350,0.0,1.0,93,0.00,,,0.00,WeatherCatV1.15B25,2013-06-09 08:33:00,
2013-06-09 04:38:00,53.0,51.0,29.98,North,350,0.0,3.0,93,0.00,,,0.00,WeatherCatV1.15B25,2013-06-09 08:38:00,
2013-06-09 04:43:00,53.0,51.0,29.98,North,350,0.0,0.0,93,0.00,,,0.00,WeatherCatV1.15B25,2013-06-09 08:43:00,
2013-06-09 04:48:00,53.1,51.1,29.98,North,350,0.0,1.0,93,0.00,,,0.00,WeatherCatV1.15B25,2013-06-09 08:48:00,
2013-06-09 04:53:00,53.0,51.0,29.99,North,350,0.0,0.0,93,0.00,,,0.00,WeatherCatV1.15B25,2013-06-09 08:53:00,
2013-06-09 04:58:00,53.0,51.3,29.99,North,350,0.0,0.0,94,0.00,,,0.00,WeatherCatV1.15B25,2013-06-09 08:58:00,
2013-06-09 05:03:00,53.0,51.3,29.99,North,350,0.0,0.0,94,0.00,,,0.00,WeatherCatV1.15B25,2013-06-09 09:03:00,
2013-06-09 05:08:00,53.1,51.4,29.99,North,350,0.0,0.0,94,0.00,,,0.00,WeatherCatV1.15B25,2013-06-09 09:08:00,
2013-06-09 05:13:00,53.2,51.5,29.99,North,350,0.0,0.0,94,0.00,,,0.00,WeatherCatV1.15B25,2013-06-09 09:13:00,
2013-06-09 05:18:00,53.2,51.5,30.00,North,350,0.0,0.0,94,0.00,,,0.00,WeatherCatV1.15B25,2013-06-09 09:18:00,
2013-06-09 05:23:00,53.1,51.4,30.00,North,350,0.0,0.0,94,0.00,,,0.00,WeatherCatV1.15B25,2013-06-09 09:23:00,
2013-06-09 05:28:00,53.2,51.5,30.00,North,350,0.0,0.0,94,0.00,,,0.00,WeatherCatV1.15B25,2013-06-09 09:28:00,
2013-06-09 05:33:00,53.3,51.6,30.00,North,350,0.0,1.0,94,0.00,,,0.00,WeatherCatV1.15B25,2013-06-09 09:33:00,
2013-06-09 05:38:00,53.2,51.5,30.00,North,349,0.0,0.0,94,0.00,,,0.00,WeatherCatV1.15B25,2013-06-09 09:38:00,
2013-06-09 05:43:00,53.3,51.6,30.00,North,349,0.0,0.0,94,0.00,,,0.00,WeatherCatV1.15B25,2013-06-09 09:43:00,
2013-06-09 05:48:00,53.4,51.7,30.01,North,349,0.0,0.0,94,0.00,,,0.00,WeatherCatV1.15B25,2013-06-09 09:48:00,
2013-06-09 05:53:00,53.5,51.8,30.00,North,350,0.0,0.0,94,0.00,,,0.00,WeatherCatV1.15B25,2013-06-09 09:53:00,
2013-06-09 05:58:00,53.4,51.7,30.01,North,350,0.0,0.0,94,0.00,,,0.00,WeatherCatV1.15B25,2013-06-09 09:58:00,
2013-06-09 06:03:00,53.3,51.6,30.01,North,350,0.0,0.0,94,0.00,,,0.00,WeatherCatV1.15B25,2013-06-09 10:03:00,
2013-06-09 06:08:00,53.3,51.6,30.01,North,350,0.0,0.0,94,0.00,,,0.00,WeatherCatV1.15B25,2013-06-09 10:08:00,
2013-06-09 06:13:00,53.4,51.7,30.02,North,349,0.0,1.0,94,0.00,,,0.00,WeatherCatV1.15B25,2013-06-09 10:13:00,
2013-06-09 06:18:00,53.5,51.8,30.01,North,350,0.0,0.0,94,0.00,,,0.00,WeatherCatV1.15B25,2013-06-09 10:18:00,
2013-06-09 06:23:00,53.7,52.0,30.02,North,349,0.0,0.0,94,0.00,,,0.00,WeatherCatV1.15B25,2013-06-09 10:23:00,
2013-06-09 06:28:00,53.9,52.5,30.02,North,350,0.0,0.0,95,0.00,,,0.00,WeatherCatV1.15B25,2013-06-09 10:28:00,
2013-06-09 06:33:00,54.1,52.7,30.02,North,350,0.0,0.0,95,0.00,,,0.00,WeatherCatV1.15B25,2013-06-09 10:33:00,
2013-06-09 06:38:00,54.4,53.0,30.02,North,349,0.0,0.0,95,0.00,,,0.00,WeatherCatV1.15B25,2013-06-09 10:38:00,
2013-06-09 06:43:00,54.5,53.1,30.02,North,350,0.0,0.0,95,0.00,,,0.00,WeatherCatV1.15B25,2013-06-09 10:43:00,
2013-06-09 06:48:00,54.6,53.2,30.02,North,350,0.0,0.0,95,0.00,,,0.00,WeatherCatV1.15B25,2013-06-09 10:48:00,
2013-06-09 06:53:00,54.8,53.4,30.02,North,350,0.0,0.0,95,0.00,,,0.00,WeatherCatV1.15B25,2013-06-09 10:53:00,
2013-06-09 06:58:00,55.1,53.7,30.02,North,349,0.0,0.0,95,0.00,,,0.00,WeatherCatV1.15B25,2013-06-09 10:58:00,
2013-06-09 07:03:00,55.4,54.0,30.02,North,350,0.0,0.0,95,0.00,,,0.00,WeatherCatV1.15B25,2013-06-09 11:03:00,
2013-06-09 07:08:00,55.7,54.3,30.02,North,350,0.0,1.0,95,0.00,,,0.00,WeatherCatV1.15B25,2013-06-09 11:08:00,
2013-06-09 07:13:00,55.9,54.5,30.02,North,349,0.0,0.0,95,0.00,,,0.00,WeatherCatV1.15B25,2013-06-09 11:13:00,
2013-06-09 07:18:00,56.0,54.3,30.03,North,349,0.0,0.0,94,0.00,,,0.00,WeatherCatV1.15B25,2013-06-09 11:18:00,
2013-06-09 07:23:00,56.1,54.4,30.03,North,350,0.0,2.0,94,0.00,,,0.00,WeatherCatV1.15B25,2013-06-09 11:23:00,
2013-06-09 07:28:00,56.2,54.5,30.03,North,350,0.0,0.0,94,0.00,,,0.00,WeatherCatV1.15B25,2013-06-09 11:28:00,
2013-06-09 07:33:00,56.4,54.7,30.03,North,350,0.0,0.0,94,0.00,,,0.00,WeatherCatV1.15B25,2013-06-09 11:33:00,
2013-06-09 07:38:00,56.5,54.8,30.03,North,350,0.0,0.0,94,0.00,,,0.00,WeatherCatV1.15B25,2013-06-09 11:38:00,
2013-06-09 07:43:00,56.6,54.6,30.03,North,350,0.0,0.0,93,0.00,,,0.00,WeatherCatV1.15B25,2013-06-09 11:43:00,
2013-06-09 07:48:00,56.9,54.9,30.03,North,350,0.0,0.0,93,0.00,,,0.00,WeatherCatV1.15B25,2013-06-09 11:48:00,
2013-06-09 07:53:00,57.2,55.2,30.03,North,350,0.0,0.0,93,0.00,,,0.00,WeatherCatV1.15B25,2013-06-09 11:53:00,
2013-06-09 07:58:00,57.3,55.3,30.03,North,349,0.0,0.0,93,0.00,,,0.00,WeatherCatV1.15B25,2013-06-09 11:58:00,
2013-06-09 08:03:00,57.4,55.1,30.03,North,350,0.0,0.0,92,0.00,,,0.00,WeatherCatV1.15B25,2013-06-09 12:03:00,
2013-06-09 08:08:00,57.6,55.3,30.03,North,350,0.0,0.0,92,0.00,,,0.00,WeatherCatV1.15B25,2013-06-09 12:08:00,
2013-06-09 08:13:00,57.9,55.6,30.03,North,350,0.0,0.0,92,0.00,,,0.00,WeatherCatV1.15B25,2013-06-09 12:13:00,
2013-06-09 08:18:00,58.1,55.8,30.03,North,350,0.0,0.0,92,0.00,,,0.00,WeatherCatV1.15B25,2013-06-09 12:18:00,
2013-06-09 08:23:00,58.3,56.0,30.04,North,350,0.0,0.0,92,0.00,,,0.00,WeatherCatV1.15B25,2013-06-09 12:23:00,
2013-06-09 08:28:00,58.7,56.1,30.04,NE,49,3.0,5.0,91,0.00,,,0.00,WeatherCatV1.15B25,2013-06-09 12:28:00,
2013-06-09 08:33:00,59.0,55.8,30.04,NE,44,2.0,3.0,89,0.00,,,0.00,WeatherCatV1.15B25,2013-06-09 12:33:00,
2013-06-09 08:38:00,59.3,55.7,30.04,ENE,61,0.0,3.0,88,0.00,,,0.00,WeatherCatV1.15B25,2013-06-09 12:38:00,
2013-06-09 08:43:00,59.6,56.4,30.04,East,92,2.0,4.0,89,0.00,,,0.00,WeatherCatV1.15B25,2013-06-09 12:43:00,
2013-06-09 08:48:00,59.7,55.8,30.05,East,83,0.0,1.0,87,0.00,,,0.00,WeatherCatV1.15B25,2013-06-09 12:48:00,
2013-06-09 08:53:00,59.8,55.6,30.04,East,91,1.0,2.0,86,0.00,,,0.00,WeatherCatV1.15B25,2013-06-09 12:53:00,
2013-06-09 08:58:00,59.9,55.7,30.05,East,79,0.0,2.0,86,0.00,,,0.00,WeatherCatV1.15B25,2013-06-09 12:58:00,
2013-06-09 09:03:00,59.9,55.0,30.05,SSW,202,0.0,3.0,84,0.00,,,0.00,WeatherCatV1.15B25,2013-06-09 13:03:00,
2013-06-09 09:08:00,60.3,55.1,30.05,SSE,149,0.0,0.0,83,0.00,,,0.00,WeatherCatV1.15B25,2013-06-09 13:08:00,
2013-06-09 09:13:00,60.3,55.8,30.05,SSE,148,0.0,0.0,85,0.00,,,0.00,WeatherCatV1.15B25,2013-06-09 13:13:00,
2013-06-09 09:18:00,60.0,55.8,30.05,SSE,148,0.0,0.0,86,0.00,,,0.00,WeatherCatV1.15B25,2013-06-09 13:18:00,
2013-06-09 09:23:00,59.8,55.9,30.05,SSE,148,0.0,0.0,87,0.00,,,0.00,WeatherCatV1.15B25,2013-06-09 13:23:00,
2013-06-09 09:28:00,59.9,56.0,30.05,SSE,148,0.0,0.0,87,0.00,,,0.00,WeatherCatV1.15B25,2013-06-09 13:28:00,
2013-06-09 09:33:00,60.0,56.1,30.04,SSE,148,0.0,0.0,87,0.00,,,0.00,WeatherCatV1.15B25,2013-06-09 13:33:00,
2013-06-09 09:38:00,60.1,55.9,30.05,SSE,148,0.0,0.0,86,0.00,,,0.00,WeatherCatV1.15B25,2013-06-09 13:38:00,
2013-06-09 09:43:00,60.3,56.1,30.05,SSE,148,0.0,1.0,86,0.00,,,0.00,WeatherCatV1.15B25,2013-06-09 13:43:00,
2013-06-09 09:48:00,60.5,56.0,30.04,SSE,148,0.0,1.0,85,0.00,,,0.00,WeatherCatV1.15B25,2013-06-09 13:48:00,
2013-06-09 09:53:00,60.9,56.4,30.05,SSE,148,0.0,0.0,85,0.00,,,0.00,WeatherCatV1.15B25,2013-06-09 13:53:00,
2013-06-09 09:58:00,61.3,56.7,30.05,SSE,164,3.0,5.0,85,0.00,,,0.00,WeatherCatV1.15B25,2013-06-09 13:58:00,
2013-06-09 10:03:00,61.7,56.1,30.05,NW,323,0.0,1.0,82,0.00,,,0.00,WeatherCatV1.15B25,2013-06-09 14:03:00,
2013-06-09 10:08:00,61.9,57.0,30.05,NNE,26,0.0,3.0,84,0.00,,,0.00,WeatherCatV1.15B25,2013-06-09 14:08:00,
2013-06-09 10:13:00,61.8,55.9,30.05,NE,45,1.0,1.0,81,0.00,,,0.00,WeatherCatV1.15B25,2013-06-09 14:13:00,
2013-06-09 10:18:00,62.1,56.9,30.05,NE,42,2.0,3.0,83,0.00,,,0.00,WeatherCatV1.15B25,2013-06-09 14:18:00,
2013-06-09 10:23:00,62.4,55.1,30.05,North,355,0.0,2.0,77,0.00,,,0.00,WeatherCatV1.15B25,2013-06-09 14:23:00,
2013-06-09 10:28:00,63.2,57.3,30.04,North,5,2.0,3.0,81,0.00,,,0.00,WeatherCatV1.15B25,2013-06-09 14:28:00,
2013-06-09 10:33:00,63.5,58.2,30.05,North,5,1.0,1.0,83,0.00,,,0.00,WeatherCatV1.15B25,2013-06-09 14:33:00,
2013-06-09 10:38:00,63.5,56.5,30.04,East,79,1.0,4.0,78,0.00,,,0.00,WeatherCatV1.15B25,2013-06-09 14:38:00,
2013-06-09 10:43:00,63.7,56.7,30.04,East,80,0.0,1.0,78,0.00,,,0.00,WeatherCatV1.15B25,2013-06-09 14:43:00,
2013-06-09 10:48:00,63.9,58.3,30.04,East,80,0.0,0.0,82,0.00,,,0.00,WeatherCatV1.15B25,2013-06-09 14:48:00,
2013-06-09 10:53:00,63.6,55.5,30.04,North,355,1.0,9.0,75,0.00,,,0.00,WeatherCatV1.15B25,2013-06-09 14:53:00,
2013-06-09 10:58:00,63.7,57.4,30.04,North,355,0.0,1.0,80,0.00,,,0.00,WeatherCatV1.15B25,2013-06-09 14:58:00,
2013-06-09 11:03:00,63.8,57.2,30.04,ENE,73,0.0,3.0,79,0.00,,,0.00,WeatherCatV1.15B25,2013-06-09 15:03:00,
2013-06-09 11:08:00,64.2,57.5,30.04,ENE,73,0.0,2.0,79,0.00,,,0.00,WeatherCatV1.15B25,2013-06-09 15:08:00,
2013-06-09 11:13:00,64.5,56.8,30.03,South,182,2.0,2.0,76,0.00,,,0.00,WeatherCatV1.15B25,2013-06-09 15:13:00,
2013-06-09 11:18:00,64.7,56.2,30.04,East,86,0.0,1.0,74,0.00,,,0.00,WeatherCatV1.15B25,2013-06-09 15:18:00,
2013-06-09 11:23:00,65.3,56.8,30.04,East,86,0.0,4.0,74,0.00,,,0.00,WeatherCatV1.15B25,2013-06-09 15:23:00,
2013-06-09 11:28:00,65.8,54.9,30.04,ESE,108,2.0,3.0,68,0.00,,,0.00,WeatherCatV1.15B25,2013-06-09 15:28:00,
2013-06-09 11:33:00,66.2,56.5,30.03,East,82,1.0,7.0,71,0.00,,,0.00,WeatherCatV1.15B25,2013-06-09 15:33:00,
2013-06-09 11:38:00,66.8,56.3,30.03,ESE,122,0.0,4.0,69,0.00,,,0.00,WeatherCatV1.15B25,2013-06-09 15:38:00,
2013-06-09 11:43:00,67.6,57.9,30.03,ESE,113,1.0,2.0,71,0.00,,,0.00,WeatherCatV1.15B25,2013-06-09 15:43:00,
2013-06-09 11:48:00,67.7,57.2,30.03,ESE,121,3.0,4.0,69,0.00,,,0.00,WeatherCatV1.15B25,2013-06-09 15:48:00,
2013-06-09 11:53:00,67.8,58.4,30.03,East,80,4.0,4.0,72,0.00,,,0.00,WeatherCatV1.15B25,2013-06-09 15:53:00,
2013-06-09 11:58:00,67.7,55.1,30.04,East,101,4.0,5.0,64,0.00,,,0.00,WeatherCatV1.15B25,2013-06-09 15:58:00,
2013-06-09 12:03:00,67.4,57.7,30.04,East,99,1.0,4.0,71,0.00,,,0.00,WeatherCatV1.15B25,2013-06-09 16:03:00,
2013-06-09 12:08:00,66.7,56.2,30.05,NE,55,1.0,3.0,69,0.00,,,0.00,WeatherCatV1.15B25,2013-06-09 16:08:00,
2013-06-09 12:13:00,66.6,56.1,30.04,ENE,65,0.0,3.0,69,0.00,,,0.00,WeatherCatV1.15B25,2013-06-09 16:13:00,
2013-06-09 12:18:00,67.3,56.0,30.04,WSW,243,0.0,5.0,67,0.00,,,0.00,WeatherCatV1.15B25,2013-06-09 16:18:00,
2013-06-09 12:23:00,67.8,56.0,30.04,ENE,72,3.0,5.0,66,0.00,,,0.00,WeatherCatV1.15B25,2013-06-09 16:23:00,
2013-06-09 12:28:00,67.6,57.1,30.04,ENE,68,0.0,10.0,69,0.00,,,0.00,WeatherCatV1.15B25,2013-06-09 16:28:00,
2013-06-09 12:33:00,67.6,57.9,30.04,ENE,73,0.0,3.0,71,0.00,,,0.00,WeatherCatV1.15B25,2013-06-09 16:33:00,
2013-06-09 12:38:00,67.6,57.9,30.04,East,96,1.0,4.0,71,0.00,,,0.00,WeatherCatV1.15B25,2013-06-09 16:38:00,
2013-06-09 12:43:00,68.3,58.1,30.04,East,96,3.0,3.0,70,0.00,,,0.00,WeatherCatV1.15B25,2013-06-09 16:43:00,
2013-06-09 12:48:00,68.8,57.4,30.04,SE,136,3.0,3.0,67,0.00,,,0.00,WeatherCatV1.15B25,2013-06-09 16:48:00,
2013-06-09 12:53:00,68.9,58.3,30.04,ESE,119,4.0,4.0,69,0.00,,,0.00,WeatherCatV1.15B25,2013-06-09 16:53:00,
2013-06-09 12:58:00,68.5,57.1,30.03,East,86,0.0,1.0,67,0.00,,,0.00,WeatherCatV1.15B25,2013-06-09 16:58:00,
2013-06-09 13:03:00,67.6,55.8,30.04,South,175,2.0,2.0,66,0.00,,,0.00,WeatherCatV1.15B25,2013-06-09 17:03:00,
2013-06-09 13:08:00,67.0,56.5,30.04,SSW,205,0.0,0.0,69,0.00,,,0.00,WeatherCatV1.15B25,2013-06-09 17:08:00,
2013-06-09 13:13:00,66.3,55.0,30.04,SE,130,0.0,2.0,67,0.00,,,0.00,WeatherCatV1.15B25,2013-06-09 17:13:00,
2013-06-09 13:18:00,66.2,54.9,30.04,SSE,167,0.0,0.0,67,0.00,,,0.00,WeatherCatV1.15B25,2013-06-09 17:18:00,
2013-06-09 13:23:00,66.5,58.3,30.04,SSE,167,1.0,2.0,75,0.00,,,0.00,WeatherCatV1.15B25,2013-06-09 17:23:00,
2013-06-09 13:28:00,67.1,56.6,30.03,ESE,106,3.0,3.0,69,0.00,,,0.00,WeatherCatV1.15B25,2013-06-09 17:28:00,
2013-06-09 13:33:00,68.3,56.9,30.03,South,187,1.0,5.0,67,0.00,,,0.00,WeatherCatV1.15B25,2013-06-09 17:33:00,
2013-06-09 13:38:00,68.5,56.3,30.03,SSW,205,4.0,4.0,65,0.00,,,0.00,WeatherCatV1.15B25,2013-06-09 17:38:00,
2013-06-09 13:43:00,68.8,58.6,30.03,SE,130,0.0,1.0,70,0.00,,,0.00,WeatherCatV1.15B25,2013-06-09 17:43:00,
2013-06-09 13:48:00,70.3,59.6,30.03,South,173,0.0,2.0,69,0.00,,,0.00,WeatherCatV1.15B25,2013-06-09 17:48:00,
2013-06-09 13:53:00,71.1,60.4,30.03,ESE,109,2.0,4.0,69,0.00,,,0.00,WeatherCatV1.15B25,2013-06-09 17:53:00,
2013-06-09 13:58:00,71.6,57.0,30.03,East,94,1.0,4.0,60,0.00,,,0.00,WeatherCatV1.15B25,2013-06-09 17:58:00,
2013-06-09 14:03:00,71.0,57.3,30.03,East,94,0.0,3.0,62,0.00,,,0.00,WeatherCatV1.15B25,2013-06-09 18:03:00,
2013-06-09 14:08:00,70.1,59.8,30.03,SSW,194,0.0,2.0,70,0.00,,,0.00,WeatherCatV1.15B25,2013-06-09 18:08:00,
2013-06-09 14:13:00,70.3,58.0,30.03,East,82,2.0,4.0,65,0.00,,,0.00,WeatherCatV1.15B25,2013-06-09 18:13:00,
2013-06-09 14:18:00,70.5,55.5,30.03,West,261,1.0,1.0,59,0.00,,,0.00,WeatherCatV1.15B25,2013-06-09 18:18:00,
2013-06-09 14:23:00,70.0,54.5,30.03,SSW,199,0.0,1.0,58,0.00,,,0.00,WeatherCatV1.15B25,2013-06-09 18:23:00,
2013-06-09 14:28:00,69.4,58.0,30.03,ESE,113,0.0,0.0,67,0.00,,,0.00,WeatherCatV1.15B25,2013-06-09 18:28:00,
2013-06-09 14:33:00,70.3,57.5,30.03,ESE,114,0.0,1.0,64,0.00,,,0.00,WeatherCatV1.15B25,2013-06-09 18:33:00,
2013-06-09 14:38:00,71.9,62.4,30.02,South,178,1.0,1.0,72,0.00,,,0.00,WeatherCatV1.15B25,2013-06-09 18:38:00,
2013-06-09 14:43:00,73.0,57.8,30.03,SSW,212,2.0,3.0,59,0.00,,,0.00,WeatherCatV1.15B25,2013-06-09 18:43:00,
2013-06-09 14:48:00,73.3,57.1,30.02,ESE,109,1.0,3.0,57,0.00,,,0.00,WeatherCatV1.15B25,2013-06-09 18:48:00,
2013-06-09 14:53:00,73.0,59.6,30.02,South,174,0.0,3.0,63,0.00,,,0.00,WeatherCatV1.15B25,2013-06-09 18:53:00,
2013-06-09 14:58:00,72.3,57.6,30.03,North,0,5.0,5.0,60,0.00,,,0.00,WeatherCatV1.15B25,2013-06-09 18:58:00,
2013-06-09 15:03:00,71.0,56.9,30.03,SSE,155,3.0,3.0,61,0.00,,,0.00,WeatherCatV1.15B25,2013-06-09 19:03:00,
2013-06-09 15:08:00,71.6,59.2,30.03,South,170,1.0,1.0,65,0.00,,,0.00,WeatherCatV1.15B25,2013-06-09 19:08:00,
2013-06-09 15:13:00,73.1,60.6,30.03,South,172,3.0,3.0,65,0.00,,,0.00,WeatherCatV1.15B25,2013-06-09 19:13:00,
2013-06-09 15:18:00,72.5,55.9,30.03,ESE,106,2.0,2.0,56,0.00,,,0.00,WeatherCatV1.15B25,2013-06-09 19:18:00,
2013-06-09 15:23:00,71.7,57.5,30.03,ESE,103,0.0,2.0,61,0.00,,,0.00,WeatherCatV1.15B25,2013-06-09 19:23:00,
2013-06-09 15:28:00,71.1,57.9,30.03,ESE,103,0.0,1.0,63,0.00,,,0.00,WeatherCatV1.15B25,2013-06-09 19:28:00,
2013-06-09 15:33:00,70.2,58.7,30.03,East,86,1.0,1.0,67,0.00,,,0.00,WeatherCatV1.15B25,2013-06-09 19:33:00,
2013-06-09 15:38:00,69.9,56.3,30.03,SSE,165,0.0,2.0,62,0.00,,,0.00,WeatherCatV1.15B25,2013-06-09 19:38:00,
2013-06-09 15:43:00,70.5,56.4,30.03,SSE,167,1.0,1.0,61,0.00,,,0.00,WeatherCatV1.15B25,2013-06-09 19:43:00,
2013-06-09 15:48:00,70.5,56.4,30.03,NE,55,2.0,2.0,61,0.00,,,0.00,WeatherCatV1.15B25,2013-06-09 19:48:00,
2013-06-09 15:53:00,70.2,57.4,30.03,SSW,194,0.0,0.0,64,0.00,,,0.00,WeatherCatV1.15B25,2013-06-09 19:53:00,
2013-06-09 15:58:00,70.0,54.5,30.03,SE,144,0.0,2.0,58,0.00,,,0.00,WeatherCatV1.15B25,2013-06-09 19:58:00,
2013-06-09 16:03:00,70.1,57.8,30.03,SE,144,0.0,1.0,65,0.00,,,0.00,WeatherCatV1.15B25,2013-06-09 20:03:00,
2013-06-09 16:08:00,70.6,56.5,30.03,SW,214,3.0,3.0,61,0.00,,,0.00,WeatherCatV1.15B25,2013-06-09 20:08:00,
2013-06-09 16:13:00,71.1,58.3,30.03,SW,219,0.0,0.0,64,0.00,,,0.00,WeatherCatV1.15B25,2013-06-09 20:13:00,
2013-06-09 16:18:00,70.8,60.1,30.03,SW,218,0.0,0.0,69,0.00,,,0.00,WeatherCatV1.15B25,2013-06-09 20:18:00,
2013-06-09 16:23:00,70.2,56.1,30.03,ESE,111,2.0,3.0,61,0.00,,,0.00,WeatherCatV1.15B25,2013-06-09 20:23:00,
2013-06-09 16:28:00,70.2,57.0,30.04,North,10,2.0,8.0,63,0.00,,,0.00,WeatherCatV1.15B25,2013-06-09 20:28:00,
2013-06-09 16:33:00,70.7,53.7,30.03,ENE,69,0.0,3.0,55,0.00,,,0.00,WeatherCatV1.15B25,2013-06-09 20:33:00,
2013-06-09 16:38:00,70.8,58.0,30.03,ENE,70,0.0,0.0,64,0.00,,,0.00,WeatherCatV1.15B25,2013-06-09 20:38:00,
2013-06-09 16:43:00,70.0,57.7,30.03,ENE,70,1.0,2.0,65,0.00,,,0.00,WeatherCatV1.15B25,2013-06-09 20:43:00,
2013-06-09 16:48:00,69.0,57.6,30.03,South,188,0.0,1.0,67,0.00,,,0.00,WeatherCatV1.15B25,2013-06-09 20:48:00,
2013-06-09 16:53:00,68.8,52.9,30.03,SSW,205,0.0,0.0,57,0.00,,,0.00,WeatherCatV1.15B25,2013-06-09 20:53:00,
2013-06-09 16:58:00,69.6,56.4,30.03,SSW,201,0.0,0.0,63,0.00,,,0.00,WeatherCatV1.15B25,2013-06-09 20:58:00,
2013-06-09 17:03:00,70.4,55.4,30.03,ENE,70,4.0,4.0,59,0.00,,,0.00,WeatherCatV1.15B25,2013-06-09 21:03:00,
2013-06-09 17:08:00,71.3,53.8,30.03,WSW,252,1.0,3.0,54,0.00,,,0.00,WeatherCatV1.15B25,2013-06-09 21:08:00,
2013-06-09 17:13:00,72.4,56.8,30.03,WSW,248,2.0,4.0,58,0.00,,,0.00,WeatherCatV1.15B25,2013-06-09 21:13:00,
2013-06-09 17:18:00,73.2,57.0,30.03,WSW,248,0.0,1.0,57,0.00,,,0.00,WeatherCatV1.15B25,2013-06-09 21:18:00,
2013-06-09 17:23:00,73.7,58.0,30.03,WSW,247,0.0,0.0,58,0.00,,,0.00,WeatherCatV1.15B25,2013-06-09 21:23:00,
2013-06-09 17:28:00,73.7,59.4,30.03,WSW,248,1.0,2.0,61,0.00,,,0.00,WeatherCatV1.15B25,2013-06-09 21:28:00,
2013-06-09 17:33:00,73.1,59.7,30.03,ENE,77,5.0,6.0,63,0.00,,,0.00,WeatherCatV1.15B25,2013-06-09 21:33:00,
2013-06-09 17:38:00,72.5,59.2,30.03,NE,45,0.0,4.0,63,0.00,,,0.00,WeatherCatV1.15B25,2013-06-09 21:38:00,
2013-06-09 17:43:00,72.3,57.2,30.03,NE,36,0.0,1.0,59,0.00,,,0.00,WeatherCatV1.15B25,2013-06-09 21:43:00,
2013-06-09 17:48:00,72.5,55.9,30.03,NE,34,0.0,2.0,56,0.00,,,0.00,WeatherCatV1.15B25,2013-06-09 21:48:00,
2013-06-09 17:53:00,72.6,59.7,30.03,NE,34,0.0,1.0,64,0.00,,,0.00,WeatherCatV1.15B25,2013-06-09 21:53:00,
2013-06-09 17:59:00,72.4,59.1,30.03,NE,34,0.0,0.0,63,0.00,,,0.00,WeatherCatV1.15B25,2013-06-09 21:59:00,
2013-06-09 18:04:00,71.8,54.7,30.03,SE,145,0.0,2.0,55,0.00,,,0.00,WeatherCatV1.15B25,2013-06-09 22:04:00,
2013-06-09 18:09:00,72.1,57.4,30.03,WSW,248,0.0,0.0,60,0.00,,,0.00,WeatherCatV1.15B25,2013-06-09 22:09:00,
2013-06-09 18:14:00,72.2,58.0,30.03,WSW,244,0.0,0.0,61,0.00,,,0.00,WeatherCatV1.15B25,2013-06-09 22:14:00,
2013-06-09 18:19:00,71.3,58.0,30.03,WSW,244,0.0,0.0,63,0.00,,,0.00,WeatherCatV1.15B25,2013-06-09 22:19:00,
2013-06-09 18:24:00,70.8,58.4,30.03,WSW,245,0.0,0.0,65,0.00,,,0.00,WeatherCatV1.15B25,2013-06-09 22:24:00,
2013-06-09 18:29:00,69.8,55.7,30.04,WSW,245,0.0,1.0,61,0.00,,,0.00,WeatherCatV1.15B25,2013-06-09 22:29:00,
2013-06-09 18:34:00,69.3,57.0,30.04,WSW,245,0.0,0.0,65,0.00,,,0.00,WeatherCatV1.15B25,2013-06-09 22:34:00,
2013-06-09 18:39:00,69.1,56.8,30.04,WSW,245,0.0,0.0,65,0.00,,,0.00,WeatherCatV1.15B25,2013-06-09 22:39:00,
2013-06-09 18:44:00,68.5,56.3,30.04,WSW,250,1.0,2.0,65,0.00,,,0.00,WeatherCatV1.15B25,2013-06-09 22:44:00,
2013-06-09 18:49:00,67.9,56.5,30.04,WSW,250,0.0,1.0,67,0.00,,,0.00,WeatherCatV1.15B25,2013-06-09 22:49:00,
2013-06-09 18:54:00,67.6,57.1,30.04,WSW,250,0.0,0.0,69,0.00,,,0.00,WeatherCatV1.15B25,2013-06-09 22:54:00,
2013-06-09 18:59:00,67.2,56.3,30.05,WSW,249,0.0,2.0,68,0.00,,,0.00,WeatherCatV1.15B25,2013-06-09 22:59:00,
2013-06-09 19:04:00,67.1,56.6,30.05,WSW,250,0.0,1.0,69,0.00,,,0.00,WeatherCatV1.15B25,2013-06-09 23:04:00,
2013-06-09 19:09:00,66.8,55.9,30.05,WSW,250,0.0,2.0,68,0.00,,,0.00,WeatherCatV1.15B25,2013-06-09 23:09:00,
2013-06-09 19:14:00,66.4,55.5,30.05,WSW,250,0.0,1.0,68,0.00,,,0.00,WeatherCatV1.15B25,2013-06-09 23:14:00,
2013-06-09 19:19:00,66.0,55.5,30.06,WSW,257,0.0,0.0,69,0.00,,,0.00,WeatherCatV1.15B25,2013-06-09 23:19:00,
2013-06-09 19:24:00,65.6,55.5,30.06,West,260,0.0,0.0,70,0.00,,,0.00,WeatherCatV1.15B25,2013-06-09 23:24:00,
2013-06-09 19:29:00,65.3,55.3,30.06,West,261,0.0,0.0,70,0.00,,,0.00,WeatherCatV1.15B25,2013-06-09 23:29:00,
2013-06-09 19:34:00,65.0,55.4,30.06,West,262,0.0,1.0,71,0.00,,,0.00,WeatherCatV1.15B25,2013-06-09 23:34:00,
2013-06-09 19:39:00,64.9,56.8,30.06,West,262,0.0,1.0,75,0.00,,,0.00,WeatherCatV1.15B25,2013-06-09 23:39:00,
2013-06-09 19:44:00,64.5,55.6,30.06,West,262,0.0,0.0,73,0.00,,,0.00,WeatherCatV1.15B25,2013-06-09 23:44:00,
2013-06-09 19:49:00,64.3,55.1,30.06,West,262,0.0,0.0,72,0.00,,,0.00,WeatherCatV1.15B25,2013-06-09 23:49:00,
2013-06-09 19:54:00,64.2,55.0,30.06,West,263,0.0,0.0,72,0.00,,,0.00,WeatherCatV1.15B25,2013-06-09 23:54:00,
2013-06-09 19:59:00,64.0,54.0,30.07,SE,125,0.0,1.0,70,0.00,,,0.00,WeatherCatV1.15B25,2013-06-09 23:59:00,
2013-06-09 20:04:00,64.0,55.9,30.06,SE,124,0.0,0.0,75,0.00,,,0.00,WeatherCatV1.15B25,2013-06-10 00:04:00,
2013-06-09 20:09:00,63.6,55.5,30.06,SE,124,0.0,1.0,75,0.00,,,0.00,WeatherCatV1.15B25,2013-06-10 00:09:00,
2013-06-09 20:14:00,63.1,55.0,30.07,SE,124,1.0,1.0,75,0.00,,,0.00,WeatherCatV1.15B25,2013-06-10 00:14:00,
2013-06-09 20:19:00,62.9,55.6,30.07,SE,124,0.0,0.0,77,0.00,,,0.00,WeatherCatV1.15B25,2013-06-10 00:19:00,
2013-06-09 20:24:00,62.6,54.6,30.07,SE,124,0.0,0.0,75,0.00,,,0.00,WeatherCatV1.15B25,2013-06-10 00:24:00,
2013-06-09 20:29:00,62.5,54.5,30.07,SE,124,0.0,0.0,75,0.00,,,0.00,WeatherCatV1.15B25,2013-06-10 00:29:00,
2013-06-09 20:34:00,62.3,54.3,30.07,ESE,123,0.0,1.0,75,0.00,,,0.00,WeatherCatV1.15B25,2013-06-10 00:34:00,
2013-06-09 20:39:00,62.1,54.1,30.07,SE,124,0.0,1.0,75,0.00,,,0.00,WeatherCatV1.15B25,2013-06-10 00:39:00,
2013-06-09 20:40:00,63.3,57.7,30.04,North,0,1.0,3.0,82,0.00,,,0.00,WeatherCatV1.15B25,2013-06-10 00:40:00,
2013-06-09 20:44:00,62.0,54.7,30.07,SE,124,0.0,0.0,77,0.00,,,0.00,WeatherCatV1.15B25,2013-06-10 00:44:00,
2013-06-09 20:45:00,63.5,58.2,30.04,North,2,1.0,1.0,83,0.00,,,0.00,WeatherCatV1.15B25,2013-06-10 00:45:00,
2013-06-09 20:50:00,63.4,55.7,30.04,NE,36,1.0,2.0,76,0.00,,,0.00,WeatherCatV1.15B25,2013-06-10 00:50:00,
2013-06-09 20:55:00,50.1,44.2,29.81,North,0,0.0,2.0,80,0.00,,,0.00,WeatherCatV1.15B25,2013-06-10 00:55:00,
2013-06-09 21:00:00,50.1,44.2,29.81,North,0,0.0,2.0,80,0.00,,,0.00,WeatherCatV1.15B25,2013-06-10 01:00:00,
2013-06-09 21:05:00,50.1,44.2,29.81,North,0,0.0,2.0,80,0.00,,,0.00,WeatherCatV1.15B25,2013-06-10 01:05:00,
2013-06-09 21:10:00,50.1,44.2,29.81,North,0,0.0,2.0,80,0.00,,,0.00,WeatherCatV1.15B25,2013-06-10 01:10:00,
2013-06-09 21:15:00,50.1,44.2,29.81,North,0,0.0,2.0,80,0.00,,,0.00,WeatherCatV1.15B25,2013-06-10 01:15:00,
2013-06-09 21:20:00,50.1,44.2,29.81,North,0,0.0,2.0,80,0.00,,,0.00,WeatherCatV1.15B25,2013-06-10 01:20:00,
2013-06-09 21:25:00,50.1,44.2,29.81,North,0,0.0,2.0,80,0.00,,,0.00,WeatherCatV1.15B25,2013-06-10 01:25:00,
2013-06-09 21:30:00,50.1,44.2,29.81,North,0,0.0,2.0,80,0.00,,,0.00,WeatherCatV1.15B25,2013-06-10 01:30:00,
2013-06-09 21:35:00,50.1,44.2,29.81,North,0,0.0,2.0,80,0.00,,,0.00,WeatherCatV1.15B25,2013-06-10 01:35:00,
2013-06-09 21:40:00,50.1,44.2,29.81,North,0,0.0,2.0,80,0.00,,,0.00,WeatherCatV1.15B25,2013-06-10 01:40:00,
2013-06-09 21:45:00,50.1,44.2,29.81,North,0,0.0,2.0,80,0.00,,,0.00,WeatherCatV1.15B25,2013-06-10 01:45:00,
2013-06-09 21:50:00,50.1,44.2,29.81,North,0,0.0,2.0,80,0.00,,,0.00,WeatherCatV1.15B25,2013-06-10 01:50:00,
2013-06-09 21:55:00,50.1,44.2,29.81,North,0,0.0,2.0,80,0.00,,,0.00,WeatherCatV1.15B25,2013-06-10 01:55:00,
2013-06-09 22:00:00,50.1,44.2,29.81,North,0,0.0,2.0,80,0.00,,,0.00,WeatherCatV1.15B25,2013-06-10 02:00:00,
2013-06-09 22:05:00,50.1,44.2,29.81,North,0,0.0,2.0,80,0.00,,,0.00,WeatherCatV1.15B25,2013-06-10 02:05:00,
2013-06-09 22:10:00,50.1,44.2,29.81,North,0,0.0,2.0,80,0.00,,,0.00,WeatherCatV1.15B25,2013-06-10 02:10:00,
2013-06-09 22:15:00,50.1,44.2,29.81,North,0,0.0,2.0,80,0.00,,,0.00,WeatherCatV1.15B25,2013-06-10 02:15:00,
2013-06-09 22:20:00,50.1,44.2,29.81,North,0,0.0,2.0,80,0.00,,,0.00,WeatherCatV1.15B25,2013-06-10 02:20:00,
2013-06-09 22:25:00,50.1,44.2,29.81,North,0,0.0,2.0,80,0.00,,,0.00,WeatherCatV1.15B25,2013-06-10 02:25:00,
2013-06-09 22:30:00,50.1,44.2,29.81,North,0,0.0,2.0,80,0.00,,,0.00,WeatherCatV1.15B25,2013-06-10 02:30:00,
2013-06-09 22:35:00,50.1,44.2,29.81,North,0,0.0,2.0,80,0.00,,,0.00,WeatherCatV1.15B25,2013-06-10 02:35:00,
2013-06-09 22:40:00,50.1,44.2,29.81,North,0,0.0,2.0,80,0.00,,,0.00,WeatherCatV1.15B25,2013-06-10 02:40:00,
2013-06-09 22:45:00,50.1,44.2,29.81,North,0,0.0,2.0,80,0.00,,,0.00,WeatherCatV1.15B25,2013-06-10 02:45:00,
2013-06-09 22:50:00,50.1,44.2,29.81,North,0,0.0,2.0,80,0.00,,,0.00,WeatherCatV1.15B25,2013-06-10 02:50:00,
2013-06-09 22:55:00,50.1,44.2,29.81,North,0,0.0,2.0,80,0.00,,,0.00,WeatherCatV1.15B25,2013-06-10 02:55:00,
2013-06-09 23:00:00,50.1,44.2,29.81,North,0,0.0,2.0,80,0.00,,,0.00,WeatherCatV1.15B25,2013-06-10 03:00:00,
2013-06-09 23:05:00,50.1,44.2,29.81,North,0,0.0,2.0,80,0.00,,,0.00,WeatherCatV1.15B25,2013-06-10 03:05:00,
2013-06-09 23:10:00,50.1,44.2,29.81,North,0,0.0,2.0,80,0.00,,,0.00,WeatherCatV1.15B25,2013-06-10 03:10:00,
2013-06-09 23:15:00,50.1,44.2,29.81,North,0,0.0,2.0,80,0.00,,,0.00,WeatherCatV1.15B25,2013-06-10 03:15:00,
2013-06-09 23:20:00,50.1,44.2,29.81,North,0,0.0,2.0,80,0.00,,,0.00,WeatherCatV1.15B25,2013-06-10 03:20:00,
2013-06-09 23:25:00,50.1,44.2,29.81,North,0,0.0,2.0,80,0.00,,,0.00,WeatherCatV1.15B25,2013-06-10 03:25:00,
2013-06-09 23:30:00,50.1,44.2,29.81,North,0,0.0,2.0,80,0.00,,,0.00,WeatherCatV1.15B25,2013-06-10 03:30:00,
2013-06-09 23:35:00,50.1,44.2,29.81,North,0,0.0,2.0,80,0.00,,,0.00,WeatherCatV1.15B25,2013-06-10 03:35:00,
2013-06-09 23:40:00,50.1,44.2,29.81,North,0,0.0,2.0,80,0.00,,,0.00,WeatherCatV1.15B25,2013-06-10 03:40:00,
2013-06-09 23:45:00,50.1,44.2,29.81,North,0,0.0,2.0,80,0.00,,,0.00,WeatherCatV1.15B25,2013-06-10 03:45:00,
2013-06-09 23:50:00,50.1,44.2,29.81,North,0,0.0,2.0,80,0.00,,,0.00,WeatherCatV1.15B25,2013-06-10 03:50:00,
2013-06-09 23:55:00,50.1,44.2,29.81,North,0,0.0,2.0,80,0.00,,,0.00,WeatherCatV1.15B25,2013-06-10 03:55:00,